Temperature
25 24 24 24 26 27 29 31 32 31 31 31 31 31 29 28 27 25 25 24 22 22 22 21 21 20 20 20 19 19 19 19 19 19 19 19 18 18 18 18 18 18 18 18 18 18 18 18 18
25 24 25 26 27 28 30 31 31 32 32 31 31 30 29 28 27 26 25 23 22 22 22 21 21 20 20 20 19 19 19 19 19 19 19 18 18 18 18 18 18 18 18 18 18 18 18 18 18
25 25 27 27 28 29 30 32 32 32 32 31 31 30 29 28 27 26 24 23 22 21 21 22 21 20 20 20 19 19 19 19 19 19 19 18 18 18 18 18 18 18 18 18 18 18 18 18 18
25 27 27 28 30 32 32 33 33 32 32 31 30 29 28 27 27 25 24 23 22 21 22 22 21 20 20 20 19 19 19 19 19 19 18 18 18 18 18 18 18 18 18 18 18 18 18 18 18
27 28 27 28 31 33 34 34 33 33 32 31 30 28 27 27 26 25 24 24 22 21 21 22 21 21 20 20 19 19 19 19 19 18 18 18 18 18 18 18 18 18 18 18 18 18 18 18 18
28 29 28 29 31 33 34 34 33 33 32 32 30 28 27 26 26 25 25 24 23 21 21 22 21 21 20 20 19 19 19 19 19 18 18 18 18 18 18 18 18 18 18 18 18 18 18 18 18
29 29 29 31 32 33 34 34 33 33 32 32 30 28 26 26 26 25 25 24 23 21 21 22 21 20 20 20 19 19 19 19 19 18 18 18 18 18 18 18 18 18 18 18 18 18 18 18 18
30 31 30 31 32 33 34 34 33 33 32 31 30 28 26 26 25 25 25 24 23 22 21 21 21 20 20 20 19 19 19 19 19 18 18 18 18 18 18 18 18 18 18 18 18 18 18 18 18
31 30 30 31 32 33 34 34 33 33 32 31 30 29 27 26 25 25 25 24 23 22 21 20 20 20 19 19 19 19 19 19 19 19 19 18 18 18 18 18 18 18 18 18 18 18 18 18 18
32 30 30 33 34 34 34 34 33 32 31 30 29 28 27 26 25 25 24 24 23 22 21 21 20 19 19 18 19 19 19 19 18 18 18 18 18 18 18 18 18 18 18 18 18 18 18 18 18
33 32 33 34 34 34 34 34 34 33 31 30 29 27 26 26 25 25 24 24 23 22 21 21 20 20 19 19 19 18 18 19 18 18 18 18 18 18 18 18 18 18 18 18 18 18 17 17 17
33 33 34 34 34 34 34 34 34 33 32 31 29 28 26 26 25 25 24 24 23 22 21 21 20 20 20 19 19 19 18 19 18 18 18 18 18 18 18 18 18 18 18 18 18 17 17 17 18
33 34 34 34 34 34 34 34 34 33 32 31 30 28 27 26 25 25 24 23 23 22 21 21 20 20 20 19 19 19 19 19 19 18 18 18 18 18 18 18 18 18 18 18 18 17 17 17 18
33 34 34 34 34 34 34 34 33 33 32 31 30 29 27 26 25 25 24 23 22 22 21 20 20 20 20 19 19 19 19 19 19 18 18 18 18 18 18 18 18 18 18 18 18 18 18 18 18
33 33 33 34 34 34 34 33 33 32 32 32 30 29 28 27 26 25 24 23 22 21 21 20 20 19 19 19 19 19 19 19 19 18 18 18 18 18 18 18 18 18 18 18 18 18 18 18 18
33 32 32 34 35 34 34 32 33 33 32 31 31 29 28 27 26 25 23 22 22 21 20 20 19 19 19 19 19 19 19 19 19 18 18 18 18 18 18 18 18 18 18 18 18 18 18 18 18
32 32 32 34 35 35 34 33 33 33 33 31 31 29 28 26 26 24 23 22 21 21 20 20 19 19 19 18 19 19 19 19 19 18 18 18 18 18 18 18 18 18 18 18 18 18 18 18 18
32 33 33 33 34 34 34 33 34 33 33 32 31 29 27 26 25 24 23 22 21 20 20 20 19 19 18 18 18 18 19 19 18 18 18 18 18 18 18 18 18 18 18 18 18 18 18 18 18
33 33 33 34 35 34 33 33 34 34 33 32 31 29 27 26 25 24 22 21 20 20 19 19 19 19 18 18 18 18 18 18 18 18 18 18 18 18 18 18 18 18 18 18 18 18 18 18 18
32 32 32 34 35 34 33 33 34 34 33 32 31 29 28 26 25 23 22 21 20 20 19 19 19 19 19 18 18 18 18 18 18 18 18 18 18 18 18 18 18 18 18 18 18 18 18 18 18
32 32 32 33 34 34 33 32 32 33 32 32 31 30 28 26 25 23 22 21 20 20 19 19 19 19 19 18 18 18 18 18 18 18 18 18 18 18 18 18 18 18 18 18 18 18 18 18 18
31 33 33 33 32 32 32 31 31 31 31 31 31 30 28 27 25 24 22 21 21 20 19 19 19 19 19 18 18 18 18 18 18 18 18 18 18 18 18 18 18 18 18 18 18 18 18 18 18
32 33 33 33 32 31 32 31 31 31 30 31 31 30 29 27 26 24 23 22 21 20 19 19 19 19 19 18 18 18 18 18 18 18 18 18 18 18 18 18 18 18 18 18 18 18 18 18 18
33 33 32 32 32 30 31 31 30 31 31 31 31 30 29 28 26 24 23 22 21 20 19 19 19 18 18 18 18 18 18 18 18 18 18 18 18 18 18 18 18 18 18 18 18 17 17 17 17
32 31 29 29 29 29 30 31 31 32 33 32 32 30 29 28 26 24 23 22 21 20 20 19 19 18 18 18 18 18 18 18 18 18 18 18 18 18 18 17 17 18 18 17 17 17 17 17 17
32 31 29 28 28 27 28 29 31 33 33 32 31 30 29 28 26 25 23 22 21 21 20 19 19 18 18 18 18 18 18 18 18 18 18 18 18 18 18 17 17 17 17 17 17 17 17 17 17
31 31 32 31 30 29 29 29 30 31 32 31 31 30 28 27 26 24 23 22 21 20 20 19 19 18 18 18 18 18 18 18 18 18 17 17 17 18 18 18 17 17 17 17 17 17 17 17 17
32 32 31 30 29 28 29 29 28 29 29 30 30 30 28 27 26 25 23 22 21 20 20 19 19 18 18 18 18 18 18 18 18 18 17 17 17 17 17 17 17 17 17 17 17 17 17 17 16
31 31 31 31 30 29 28 27 28 27 28 29 30 29 28 27 26 24 23 22 21 20 19 19 18 18 18 18 18 18 18 17 17 17 17 17 17 17 17 17 17 17 16 16 16 16 16 16 16
32 32 31 29 29 30 29 28 28 27 29 29 30 29 28 26 25 24 23 22 21 20 19 19 18 18 18 17 17 17 17 17 17 17 17 17 17 17 17 16 16 16 16 16 16 16 16 16 16
Wind_Speed
11 13 11 6 4 1 10 14 15 15 14 12 12 13 18 14 9 9 14 21 24 21 20 19 18 18 17 16 15 15 15 15 14 13 13 12 12 12 12 12 12 13 13 12 12 12 13 13 13
11 14 8 4 2 4 11 13 14 13 11 11 13 15 17 15 14 15 17 22 24 21 20 19 19 18 17 17 16 15 15 14 14 13 12 12 12 12 12 12 13 13 13 13 13 13 13 13 12
13 15 5 3 1 6 11 12 12 11 11 10 13 16 14 12 13 14 18 22 22 20 20 21 20 18 17 17 16 15 15 14 13 13 12 12 12 12 13 13 13 13 13 14 14 14 13 13 12
9 6 3 4 3 8 10 10 9 10 9 10 11 11 12 10 11 17 20 22 22 21 21 21 20 19 18 17 16 15 15 14 13 12 12 12 12 13 13 13 13 14 14 14 14 14 13 12 10
9 3 2 4 3 8 9 8 7 9 8 11 14 13 11 11 16 20 19 21 21 21 21 21 20 19 17 16 16 15 14 14 13 12 12 12 12 13 13 13 14 14 14 14 13 13 12 11 9
5 4 4 1 2 5 7 7 7 8 7 9 11 14 9 11 15 17 18 18 19 21 20 20 20 19 17 16 15 15 14 14 13 12 12 12 13 13 13 13 14 13 13 13 12 12 11 10 7
9 7 7 3 2 5 6 6 7 6 6 8 11 12 7 11 15 16 16 16 18 21 19 18 18 17 17 16 15 14 14 13 12 12 12 12 13 13 13 13 13 13 12 12 11 11 10 8 6
9 7 6 5 2 5 5 5 5 5 5 6 7 8 11 14 15 15 15 15 17 19 19 17 17 17 16 15 15 14 14 13 13 12 12 13 13 13 13 13 12 12 11 11 10 10 9 7 5
10 7 6 4 3 4 4 3 3 4 6 7 7 8 17 19 18 16 14 14 15 16 15 16 17 15 16 16 16 15 14 13 13 12 12 13 12 13 12 13 12 11 10 9 9 8 8 6 5
7 5 7 6 4 4 4 4 2 2 5 5 7 12 19 18 17 16 15 15 16 16 14 12 15 14 14 14 15 13 13 13 12 12 13 11 10 11 13 15 12 11 10 9 8 7 7 6 5
9 9 7 7 5 6 6 5 4 0 3 5 10 15 18 18 16 15 15 14 15 14 12 13 14 11 10 10 11 10 10 12 11 12 11 9 10 11 12 11 10 10 10 8 8 8 6 5 3
11 11 9 7 6 7 8 7 5 2 2 6 12 17 17 17 16 15 15 14 14 13 12 12 11 8 8 8 7 7 7 8 7 10 10 8 5 6 7 7 9 9 7 6 6 5 5 3 2
11 12 11 10 9 9 9 8 6 1 4 8 11 16 16 16 15 13 12 12 13 12 11 10 10 8 7 6 4 6 5 7 9 10 8 8 5 4 5 4 5 7 7 6 4 3 4 3 2
12 13 12 12 12 10 9 8 6 2 4 7 11 13 15 15 15 14 13 12 12 12 11 10 10 9 7 6 3 2 5 6 8 9 9 8 7 5 4 4 3 3 5 5 4 4 3 2 1
13 14 14 14 13 9 8 7 4 3 3 5 9 11 13 13 14 14 13 12 12 12 12 11 10 10 8 7 6 4 4 7 6 7 10 8 7 8 4 3 3 4 6 5 4 4 4 3 3
14 14 15 14 10 7 8 6 4 5 5 4 8 10 12 11 13 13 13 12 12 12 12 11 12 12 10 7 6 4 4 5 5 8 10 8 7 9 5 3 4 5 6 5 3 2 2 2 2
15 14 14 9 8 7 8 6 4 5 5 5 6 8 10 11 11 12 13 12 11 12 12 11 10 12 10 8 5 3 2 3 4 7 8 9 8 8 5 2 3 5 3 3 4 3 2 2 1
12 11 10 8 6 6 8 8 4 5 4 6 7 8 10 11 11 12 12 12 11 11 11 12 10 11 10 8 5 4 3 3 4 5 7 9 8 8 5 4 4 4 3 3 3 3 2 1 2
15 14 13 8 5 6 9 9 6 4 4 5 7 9 10 11 11 11 12 12 12 11 12 12 11 11 9 8 8 6 5 5 4 4 8 9 8 8 5 2 4 2 2 3 4 3 4 3 2
13 14 14 10 7 7 10 11 7 5 5 6 8 10 10 10 11 12 11 11 12 11 12 12 11 12 11 8 7 5 5 4 4 4 6 9 8 7 7 4 4 4 3 3 2 2 2 3 3
13 13 13 12 10 10 12 12 8 4 4 5 7 8 9 12 12 12 12 11 12 12 13 12 11 11 11 10 7 5 4 3 4 4 5 6 7 7 5 5 3 3 4 4 4 4 4 2 2
13 13 13 13 12 11 12 9 4 3 5 5 6 8 8 9 12 12 12 11 12 12 12 11 11 11 10 9 9 9 7 6 6 5 5 6 6 7 7 6 4 3 3 4 5 5 3 3 3
14 12 11 12 12 13 13 10 4 5 5 5 7 8 9 10 11 12 11 11 11 11 11 11 11 11 10 10 9 9 8 6 5 5 6 7 6 6 7 6 5 5 4 4 3 3 3 2 3
13 12 12 12 13 14 14 12 5 4 6 5 8 8 9 9 11 11 10 9 9 10 10 10 10 10 11 10 9 9 9 8 7 6 6 6 5 5 6 7 6 5 5 4 4 3 4 2 1
13 11 9 10 10 10 10 9 3 8 6 5 7 9 8 9 10 10 10 9 9 10 10 10 10 9 10 10 9 9 9 8 8 7 7 7 6 6 7 7 6 6 5 4 4 4 3 3 3
14 15 12 10 6 3 6 6 3 7 9 7 8 9 8 9 10 10 11 9 9 9 9 9 9 9 9 9 8 8 8 7 6 7 7 7 6 6 7 6 6 6 6 6 5 4 5 4 4
16 15 17 15 15 10 8 7 4 4 7 8 8 9 7 8 11 11 10 9 8 8 8 8 8 8 7 7 7 7 7 7 6 6 6 4 4 5 7 7 6 5 6 5 5 5 5 5 5
18 15 11 12 11 12 8 3 2 4 4 7 9 10 9 9 10 10 10 9 8 8 7 6 6 6 6 6 6 6 6 6 6 5 6 5 4 4 5 6 6 5 5 5 5 4 4 3 3
15 16 13 10 10 11 7 1 1 2 5 8 8 10 11 10 10 9 8 8 8 8 8 7 6 6 6 5 5 5 5 5 5 5 5 5 4 4 4 5 5 5 5 5 5 4 4 4 3
15 16 14 11 10 11 10 3 6 7 6 6 9 10 10 10 11 10 9 8 8 8 8 7 6 5 5 4 4 4 4 5 5 5 5 4 5 4 4 4 4 4 4 4 5 5 4 4 3
Wind_Direction
251 249 241 259 258 240 72 74 72 69 66 62 58 65 68 62 77 99 124 123 121 126 131 131 129 126 124 123 122 122 120 117 114 110 106 104 101 100 99 98 97 98 99 100 101 103 104 105 104
270 265 253 261 276 80 78 75 73 73 73 71 66 67 74 71 87 111 122 123 125 129 136 133 131 128 126 124 123 122 121 120 117 113 109 107 104 102 101 100 99 99 100 101 101 102 104 106 107
269 268 267 243 184 86 83 80 84 82 75 74 75 67 67 85 99 119 128 132 129 131 130 131 135 132 130 128 127 125 124 122 119 116 112 108 106 104 102 101 101 100 100 101 100 101 104 106 108
268 271 272 274 75 88 91 88 90 89 80 76 75 74 74 81 110 124 135 135 130 130 130 135 136 135 134 132 131 130 127 125 122 119 115 111 108 105 104 104 103 103 102 100 100 100 103 107 109
266 269 282 299 45 79 81 84 85 87 83 86 88 86 82 90 112 128 142 136 136 134 132 138 138 137 137 136 135 134 131 128 125 121 117 114 111 108 107 108 106 105 105 103 102 102 103 106 109
270 273 277 270 76 80 81 84 82 70 77 87 97 95 96 116 124 139 143 139 137 132 133 137 140 140 140 139 138 137 135 131 129 125 121 117 114 112 112 110 109 109 108 106 104 104 105 107 109
268 279 283 285 97 79 71 72 71 82 75 81 96 103 124 137 136 144 141 138 133 129 134 142 143 143 143 143 143 142 138 135 133 131 128 124 122 120 118 116 114 113 110 108 107 107 110 112 114
271 294 311 313 65 75 61 61 71 61 67 80 98 125 147 143 145 143 142 138 130 134 141 146 149 147 150 149 149 146 143 141 140 139 138 135 133 131 129 125 121 120 118 115 114 114 119 125 132
277 291 302 303 0 54 45 29 62 80 67 53 56 109 139 145 147 147 146 141 135 138 144 154 149 152 157 154 152 151 149 150 149 151 152 151 153 145 147 127 129 129 128 127 128 129 135 144 159
251 266 291 304 345 3 2 355 352 95 102 100 100 111 132 146 152 156 155 153 147 146 152 153 147 158 163 154 152 160 162 160 171 161 167 178 162 148 134 135 140 141 142 145 149 153 164 180 176
257 264 269 289 323 336 320 313 304 61 109 149 145 143 146 153 160 163 161 161 156 152 153 152 152 161 156 143 159 169 165 163 178 163 167 166 147 136 134 147 151 158 165 168 158 177 195 206 182
259 276 289 300 318 305 301 303 308 337 92 135 151 149 153 161 166 168 167 164 157 156 157 153 146 152 142 147 161 160 159 164 159 155 174 161 155 144 147 153 164 170 176 165 167 173 167 185 178
261 271 279 288 288 283 287 289 289 291 109 123 139 147 158 165 168 170 164 160 154 156 158 148 142 140 128 126 157 167 157 161 153 159 184 166 159 146 143 145 162 170 162 165 174 165 144 157 150
280 280 281 279 276 273 275 285 277 250 124 139 149 154 163 166 168 168 164 161 156 157 154 147 143 141 135 137 174 164 158 148 151 163 174 181 161 140 144 151 165 165 154 155 156 144 141 163 136
277 280 276 264 260 264 279 281 247 208 177 163 153 160 159 164 166 167 167 161 161 155 152 151 154 155 157 164 190 177 174 159 162 158 163 181 164 144 153 154 172 166 146 145 154 150 150 172 166
268 263 263 257 242 246 260 264 217 203 195 175 162 163 157 157 166 164 162 160 159 157 156 161 168 165 167 175 195 186 187 158 157 152 161 176 160 153 166 173 166 156 159 166 146 179 170 155 162
256 249 255 242 217 240 262 274 199 207 187 171 167 162 155 157 163 158 159 160 159 160 160 164 163 160 168 176 187 196 183 153 159 156 159 167 170 162 181 172 137 169 172 165 177 158 151 151 161
268 268 266 258 218 240 269 278 226 210 195 181 166 159 155 163 165 156 155 159 160 162 163 166 165 162 167 172 181 198 186 170 171 159 154 160 173 172 184 169 163 189 164 149 122 123 133 167 211
280 295 295 291 273 271 281 282 261 213 211 174 161 160 164 165 160 156 159 164 166 168 169 170 173 168 169 176 180 185 186 185 180 173 162 167 179 174 189 191 157 186 159 157 158 160 175 210 213
274 280 282 282 274 271 280 280 267 225 206 180 174 169 162 158 158 157 160 166 170 172 173 174 176 173 176 181 180 180 179 188 188 184 160 171 173 177 186 185 181 174 155 172 186 168 185 224 206
263 266 275 283 285 270 269 269 252 241 221 180 171 160 162 160 161 164 168 173 172 173 175 178 178 178 182 177 172 177 172 186 192 174 169 177 175 185 188 168 194 166 179 180 187 192 199 234 238
258 260 267 275 277 276 273 271 233 197 211 188 163 155 157 158 162 164 171 175 175 174 173 172 175 178 181 179 180 181 188 193 192 179 175 182 184 186 183 179 186 183 194 167 196 194 203 217 252
259 275 276 273 272 272 272 271 240 174 203 183 162 159 150 159 164 159 169 173 174 172 171 172 171 176 180 187 188 192 195 193 187 178 179 185 186 188 186 181 181 187 202 189 197 162 184 218 241
256 265 267 263 263 258 257 259 237 161 168 162 144 143 142 151 150 150 157 155 161 167 170 170 172 178 181 188 192 195 195 190 186 185 184 188 187 193 195 187 180 189 201 185 175 180 198 219 278
233 243 250 246 243 258 273 258 223 143 141 129 133 134 138 138 139 141 145 152 159 167 169 171 173 178 181 187 193 194 198 196 195 192 194 194 193 198 200 195 182 194 195 183 181 184 213 212 217
227 232 242 259 259 281 294 267 221 136 121 120 125 128 140 143 140 140 146 154 158 164 166 168 171 177 182 188 193 196 195 198 203 201 200 200 204 199 189 185 183 195 191 193 183 196 203 203 210
238 234 248 262 270 260 216 208 153 119 133 138 133 130 130 133 136 139 145 148 150 155 155 162 162 171 181 188 188 190 190 195 199 195 203 204 200 195 175 177 182 189 191 197 186 208 216 184 197
243 243 244 257 272 276 257 218 178 165 158 155 147 138 133 141 140 139 142 143 146 146 141 143 147 159 170 177 182 184 186 189 190 192 194 196 194 188 167 175 181 183 183 188 195 212 199 179 195
220 240 250 263 265 270 273 224 142 192 209 174 156 141 144 143 127 124 131 136 137 136 139 141 139 148 160 167 169 173 178 183 184 187 187 184 177 164 170 172 177 179 182 179 183 208 182 177 191
229 229 231 243 259 271 278 204 174 191 196 169 142 129 123 123 124 130 135 135 138 139 139 137 141 147 149 151 157 169 171 172 174 178 180 176 166 159 161 164 164 172 170 171 176 197 179 163 173
Height
1484 1483 1484 1486 1484 1483 1478 1470 1466 1468 1469 1470 1471 1472 1476 1481 1488 1499 1500 1501 1503 1505 1509 1512 1515 1518 1520 1522 1525 1527 1528 1530 1532 1533 1534 1535 1536 1537 1538 1539 1540 1541 1542 1543 1544 1545 1546 1547 1549
1484 1486 1488 1486 1485 1488 1481 1469 1469 1469 1470 1472 1473 1475 1479 1485 1489 1495 1499 1503 1504 1506 1510 1513 1516 1519 1521 1524 1526 1528 1530 1532 1533 1534 1536 1537 1538 1539 1540 1541 1542 1543 1544 1545 1546 1546 1547 1549 1550
1485 1487 1488 1483 1483 1482 1478 1468 1468 1469 1471 1472 1475 1479 1483 1488 1492 1496 1501 1504 1506 1508 1511 1514 1517 1520 1522 1525 1527 1529 1531 1533 1534 1536 1537 1539 1540 1541 1542 1543 1544 1545 1546 1547 1548 1548 1549 1551 1552
1487 1487 1486 1482 1478 1469 1466 1466 1466 1469 1471 1473 1477 1482 1488 1491 1494 1497 1501 1505 1507 1509 1512 1515 1518 1521 1523 1526 1528 1530 1532 1534 1536 1538 1539 1540 1542 1543 1544 1545 1546 1547 1548 1549 1550 1551 1552 1553 1554
1489 1487 1487 1487 1475 1464 1462 1464 1466 1468 1471 1474 1479 1486 1491 1494 1496 1499 1502 1506 1508 1511 1512 1516 1519 1522 1524 1527 1529 1531 1534 1536 1538 1539 1541 1542 1543 1544 1545 1546 1548 1549 1550 1551 1552 1553 1554 1555 1557
1489 1486 1491 1489 1475 1464 1462 1465 1467 1470 1472 1475 1479 1487 1494 1497 1498 1501 1504 1507 1510 1511 1513 1516 1520 1523 1525 1528 1531 1533 1535 1537 1539 1541 1542 1544 1545 1546 1547 1549 1550 1551 1552 1553 1554 1555 1556 1557 1559
1488 1484 1484 1478 1472 1467 1463 1465 1467 1470 1472 1476 1480 1487 1494 1497 1500 1502 1505 1508 1511 1512 1514 1517 1520 1523 1526 1529 1532 1534 1536 1538 1540 1542 1544 1545 1547 1548 1549 1551 1552 1553 1554 1555 1556 1557 1558 1559 1561
1484 1481 1482 1477 1472 1469 1464 1465 1468 1471 1473 1477 1479 1484 1491 1496 1499 1502 1506 1509 1511 1513 1515 1518 1521 1524 1527 1530 1532 1535 1537 1539 1541 1543 1545 1547 1548 1550 1551 1552 1554 1555 1556 1557 1558 1559 1560 1561 1563
1483 1485 1486 1478 1470 1467 1464 1466 1468 1470 1474 1477 1480 1483 1488 1494 1498 1502 1506 1510 1512 1514 1517 1520 1522 1524 1528 1530 1533 1535 1538 1540 1542 1544 1546 1548 1549 1551 1553 1554 1556 1557 1558 1559 1560 1561 1562 1564 1565
1480 1486 1482 1469 1465 1464 1464 1466 1467 1470 1474 1479 1483 1486 1489 1493 1497 1501 1505 1509 1512 1515 1518 1521 1523 1526 1530 1532 1533 1536 1539 1541 1543 1545 1547 1549 1551 1553 1554 1556 1557 1558 1559 1561 1562 1563 1564 1565 1567
1475 1475 1471 1466 1465 1466 1465 1465 1466 1468 1473 1477 1481 1485 1489 1493 1497 1501 1504 1507 1511 1515 1518 1521 1523 1526 1530 1533 1534 1537 1540 1542 1544 1546 1549 1550 1552 1554 1555 1556 1558 1559 1561 1562 1564 1564 1565 1567 1569
1473 1470 1468 1466 1466 1467 1466 1465 1465 1467 1470 1474 1478 1483 1488 1492 1496 1500 1503 1507 1510 1514 1517 1520 1523 1526 1530 1532 1535 1537 1540 1542 1545 1546 1549 1551 1553 1555 1556 1557 1558 1560 1562 1563 1565 1565 1566 1568 1570
1471 1469 1467 1466 1466 1465 1465 1464 1465 1466 1470 1474 1478 1482 1487 1491 1495 1499 1503 1506 1509 1512 1516 1519 1521 1525 1528 1531 1535 1538 1540 1542 1544 1546 1549 1552 1554 1555 1556 1558 1559 1561 1562 1564 1565 1566 1567 1569 1570
1470 1468 1466 1466 1464 1463 1463 1463 1465 1467 1470 1473 1476 1481 1485 1490 1494 1498 1501 1504 1507 1510 1514 1517 1519 1522 1526 1530 1534 1537 1540 1542 1544 1546 1548 1551 1554 1555 1557 1558 1559 1561 1562 1564 1565 1567 1568 1569 1571
1471 1469 1467 1463 1461 1460 1461 1464 1463 1466 1468 1471 1475 1479 1483 1488 1492 1496 1499 1502 1505 1509 1512 1515 1518 1520 1524 1527 1532 1536 1539 1542 1544 1546 1548 1551 1553 1554 1556 1558 1559 1561 1562 1564 1565 1567 1568 1569 1570
1470 1471 1472 1460 1457 1457 1463 1470 1462 1464 1467 1470 1473 1477 1482 1486 1490 1494 1498 1501 1504 1507 1510 1513 1516 1518 1521 1525 1530 1534 1538 1541 1543 1545 1547 1550 1552 1554 1556 1558 1559 1561 1562 1564 1565 1567 1568 1569 1570
1470 1473 1468 1458 1453 1454 1458 1463 1458 1462 1463 1468 1472 1476 1480 1485 1489 1493 1496 1499 1502 1505 1508 1511 1515 1517 1520 1524 1528 1533 1537 1539 1542 1544 1546 1548 1551 1553 1555 1557 1559 1560 1562 1564 1565 1566 1567 1568 1569
1472 1465 1462 1458 1450 1452 1456 1457 1454 1457 1460 1464 1469 1475 1479 1483 1488 1491 1494 1498 1500 1503 1506 1509 1513 1515 1519 1523 1527 1531 1534 1537 1540 1543 1544 1547 1549 1551 1554 1556 1558 1560 1561 1563 1564 1565 1567 1568 1569
1462 1462 1462 1454 1448 1453 1456 1455 1452 1454 1457 1461 1467 1472 1478 1482 1487 1490 1493 1496 1499 1501 1503 1506 1510 1513 1517 1521 1524 1528 1532 1535 1538 1540 1542 1545 1547 1550 1552 1555 1556 1558 1560 1561 1563 1564 1566 1567 1568
1462 1467 1463 1454 1448 1452 1456 1454 1449 1451 1455 1459 1464 1470 1475 1481 1485 1489 1492 1494 1496 1498 1501 1504 1508 1511 1515 1518 1522 1526 1530 1533 1535 1538 1540 1543 1545 1548 1551 1553 1554 1556 1558 1560 1561 1563 1565 1566 1567
1464 1466 1462 1459 1451 1450 1455 1459 1453 1451 1454 1458 1462 1467 1473 1478 1483 1487 1490 1493 1495 1497 1499 1502 1505 1509 1513 1517 1521 1525 1528 1530 1533 1536 1538 1541 1543 1546 1549 1551 1553 1555 1556 1558 1559 1561 1563 1564 1566
1467 1456 1456 1457 1461 1463 1458 1472 1458 1454 1456 1457 1460 1465 1470 1476 1481 1485 1489 1491 1494 1496 1498 1501 1504 1507 1511 1515 1518 1521 1524 1527 1530 1533 1536 1539 1541 1544 1546 1549 1550 1552 1554 1556 1558 1559 1561 1563 1564
1458 1451 1453 1456 1461 1465 1459 1466 1463 1454 1460 1457 1459 1463 1468 1474 1479 1483 1487 1489 1492 1495 1497 1500 1502 1505 1508 1512 1515 1518 1521 1524 1527 1530 1533 1536 1539 1541 1544 1546 1548 1550 1552 1554 1556 1558 1559 1561 1563
1452 1454 1456 1457 1461 1476 1464 1466 1466 1455 1455 1454 1456 1462 1467 1472 1477 1481 1486 1488 1491 1494 1497 1499 1501 1503 1506 1509 1512 1515 1518 1521 1524 1527 1530 1533 1536 1538 1541 1543 1545 1547 1550 1551 1553 1555 1557 1559 1560
1453 1466 1479 1482 1481 1480 1460 1461 1458 1445 1445 1450 1455 1461 1467 1472 1476 1481 1485 1488 1490 1493 1495 1497 1499 1501 1504 1507 1509 1512 1515 1518 1521 1524 1527 1530 1532 1535 1538 1540 1542 1544 1546 1549 1550 1552 1554 1556 1557
1453 1460 1480 1489 1488 1487 1475 1471 1455 1441 1445 1450 1455 1461 1466 1471 1476 1480 1484 1487 1490 1492 1494 1495 1497 1500 1502 1505 1507 1510 1513 1515 1518 1521 1524 1527 1529 1532 1535 1537 1539 1541 1543 1545 1547 1549 1551 1553 1554
1452 1454 1449 1461 1465 1474 1471 1461 1452 1444 1446 1451 1455 1461 1466 1470 1475 1479 1483 1486 1489 1491 1493 1494 1496 1498 1501 1503 1505 1507 1510 1513 1516 1518 1521 1524 1527 1529 1531 1533 1536 1538 1540 1542 1544 1546 1548 1550 1551
1442 1444 1452 1461 1476 1481 1470 1467 1466 1457 1454 1454 1456 1460 1466 1471 1475 1479 1483 1486 1489 1491 1493 1494 1496 1497 1499 1501 1503 1505 1507 1510 1512 1515 1518 1521 1523 1526 1528 1530 1532 1534 1537 1539 1541 1543 1545 1547 1548
1446 1449 1450 1452 1455 1471 1477 1477 1457 1459 1455 1454 1456 1459 1465 1469 1474 1479 1482 1486 1489 1490 1492 1494 1495 1497 1498 1500 1502 1504 1505 1507 1510 1512 1515 1518 1520 1523 1525 1527 1529 1532 1533 1535 1537 1539 1542 1544 1546
1435 1441 1447 1463 1463 1458 1465 1470 1451 1453 1453 1453 1455 1459 1465 1470 1474 1478 1482 1485 1488 1490 1492 1494 1495 1496 1498 1499 1501 1502 1504 1506 1507 1509 1512 1515 1518 1520 1522 1524 1526 1529 1531 1533 1535 1537 1539 1541 1543